Content
SEND FEEDBACK

Daily
Averages
Monthly
Summary
United Kingdom

TINTAGEL, ENGLAND


Home > Europe > United Kingdom > England
Elevation: 269 feet     Latitude: 50 05N     Longitude: 005 15W

WEATHER
 
SELECT A DAY
Number of Records: 185,663;   Date Range: 7/1/96 - 12/27/14
 
SHARE

PRINT THIS DATA

[ ← Previous Day ]
WEATHER ALMANAC - SEPTEMBER 21, 2013
[ Next Day → ]
[ °C ]   °F
Weather ElementAverageHighLow
Temperature60.3 °F62.6 °F (12:50 pm)55.4 °F (12:50 am)
Dewpoint60.2 °F62.6 °F (12:50 pm)55.4 °F (12:50 am)
Humidity99.7 %100 % (12:50 am)94 % (9:50 pm)
Barometer30.25 in30.34 in (9:50 pm)30.15 in (2:50 am)
Wind Speed5.2 mph10.4 mph (3:50 am)
Weather ElementAverage
Visibility0.3 mi
Wind DirectionSW (229 °)

Weather ElementTotal
Precipitation---
Heating Degree Days6 (Base 65)
Growing Degree Days9 (Base 50)
Averaged from 30 records on September 21, 2013
WEATHER CONDITIONS BREAKOUT
WIND DIRECTION BREAKOUT
WEATHER BY HOUR - SEPTEMBER 21, 2013
[ °C ]   °F
Local TimeTemperatureDewpointHumidityBarometerVisibilityWind DirectionWind SpeedGust SpeedPrecipitationEventsConditions
12:50 AM55.4 °F55.4 °F100 %30.18 in1.2 miSouth (180°)6.9 mphLight Drizzle
1:50 AM57.2 °F57.2 °F100 %30.18 in1.2 miSouth (170°)6.9 mphRainLight Rain
2:50 AM57.2 °F57.2 °F100 %30.15 in0.2 miSouth (190°)6.9 mphFogFog
3:50 AM59.0 °F59.0 °F100 %30.15 in0.3 miSSW (200°)10.4 mphRainLight Rain
4:50 AM59.0 °F59.0 °F100 %30.15 in0.2 miSSW (210°)6.9 mphRainLight Rain
5:50 AM59.0 °F59.0 °F100 %30.15 in0.1 miSW (230°)8.1 mphFogFog
6:50 AM59.0 °F59.0 °F100 %30.18 in0.1 miWSW (240°)6.9 mphLight Drizzle
6:50 AM59.0 °F59.0 °F100 %30.19 in0.0 miWSW (240°)6.9 mphRainLight Drizzle
7:50 AM60.8 °F60.8 °F100 %30.18 in0.0 miWSW (240°)4.6 mphLight Drizzle
8:50 AM60.8 °F60.8 °F100 %30.21 in0.0 miWSW (250°)5.8 mphLight Drizzle
9:50 AM60.0 °F60.0 °F100 %30.24 in0.0 miWest (260°)4.6 mphRainLight Drizzle
9:50 AM60.8 °F60.8 °F100 %30.24 in0.1 miWest (260°)4.6 mphLight Drizzle
10:50 AM60.8 °F60.8 °F100 %30.24 in0.1 miWSW (250°)5.8 mphLight Drizzle
11:50 AM60.8 °F60.8 °F100 %30.24 in0.1 miWest (260°)5.8 mphLight Drizzle
12:50 PM62.6 °F62.6 °F100 %30.27 in0.1 miWest (260°)5.8 mphLight Drizzle
12:50 PM62.0 °F62.0 °F99 %30.27 in0.0 miWest (260°)5.8 mphRainLight Drizzle
1:50 PM62.6 °F62.6 °F100 %30.27 in0.1 miWSW (240°)5.8 mphLight Drizzle
2:50 PM60.8 °F60.8 °F100 %30.27 in0.1 miWSW (250°)8.1 mphLight Drizzle
3:50 PM61.0 °F61.0 °F100 %30.29 in0.0 miWest (260°)4.6 mphRainLight Drizzle
3:50 PM60.8 °F60.8 °F100 %30.27 in0.2 miWest (260°)4.6 mphLight Drizzle
4:50 PM62.6 °F62.6 °F100 %30.27 in0.2 miWSW (240°)4.6 mphFogFog
5:50 PM60.8 °F60.8 °F100 %30.30 in0.1 miWSW (250°)6.9 mphFogFog
6:50 PM60.8 °F60.8 °F100 %30.30 in0.2 miWest (270°)4.6 mphFogFog
6:50 PM61.0 °F61.0 °F98 %30.31 in0.0 miWest (270°)4.6 mphFogHeavy Fog
7:50 PM60.8 °F60.8 °F100 %30.30 in0.4 miWSW (240°)3.5 mphFogFog
8:50 PM60.8 °F60.8 °F100 %30.33 in0.6 miSSW (200°)3.5 mphFogFog
9:50 PM60.0 °F60.0 °F99 %30.34 in1.0 miSW (220°)1.2 mphFogLight Fog
9:50 PM60.8 °F59.0 °F94 %30.33 in0.7 miSW (220°)1.2 mphFogFog
10:50 PM60.8 °F60.8 °F100 %30.33 in1.2 miCalmFogFog
11:50 PM60.8 °F60.8 °F100 %30.33 in1.5 miWSW (250°)1.2 mphFogFog
Hourly data recorded from EGDR, located miles away from Tintagel, England







STORIES FROM OUR PARTNERS